{"data":{"norad_id":66326,"epoch":"2026-09-20T05:06:34.517664Z","epoch_age_seconds":121470,"freshness":"FRESH","line1":"1 66326U 25253H   26263.21289951  .00008135  00000+0  30479-3 0  9998","line2":"2 66326  43.0021 193.9977 0001366 279.1665  80.9032 15.27582089 49992","mean_motion":15.27582089,"eccentricity":0.0001366,"inclination_deg":43.0021,"raan_deg":193.9977,"arg_perigee_deg":279.1665,"mean_anomaly_deg":80.9032,"bstar":0.00030479,"rev_number":4999,"period_min":94.266619801929,"perigee_km":482.10560366301,"apogee_km":483.98007799552,"semimajor_km":6861.1798408293,"source":"CELESTRAK","updated_at":"2026-09-21T09:00:35.874178Z"}}